Tracking 19559 objects as of 26-Mar-2019
HD Live streaming from Space Station
objects crossing your sky now

DASH/VEP 3

Track DASH/VEP 3 now!
DASH/VEP 3 is classified as:


NORAD ID: 27368
Int'l Code: 2002-003B
Perigee: 451.4 km
Apogee: 34,857.8 km
Inclination: 28.7 °
Period: 617.7 minutes
Semi major axis: 24025 km
RCS: 13.4031 m2 (large)
Launch date: February 4, 2002
Source: Japan (JPN)
Launch site: TANEGASHIMA SPACE CENTER (TNSTA)
aabbcc
Your satellite tracking list
Your tracking list is empty




NASA's NSSDC Master Catalog

Two Line Element Set (TLE):
1 27368U 02003B   19084.62132061 -.00000067 +00000-0 +39513-3 0  9992
2 27368 028.6760 132.8411 7160381 191.2560 134.0817 02.33126496144107
Source of the keplerian elements: AFSPC